Weather History for Lugano, Switzerland

Change the Weather History Date:

Saturday, March 8, 2014

  Actual Average Record
Temperature  
Mean Temperature 45 °F -  
Max Temperature 57 °F 54 °F - ()
Min Temperature 33 °F 40 °F - ()
Degree Days  
Heating Degree Days 20    
Moisture  
Dew Point 38 °F    
Average Humidity 67    
Maximum Humidity 93    
Minimum Humidity 40    
Precipitation  
Precipitation 0.00 in 0.16 in - ()
Sea Level Pressure  
Sea Level Pressure 30.34 in    
Wind  
Wind Speed 3 mph ()    
Max Wind Speed 13 mph    
Max Gust Speed -    
Visibility 6.4 miles    
Events      
T = Trace of Precipitation, MM = Missing Value Source: Averaged Metar Reports

Daily Weather History Graph

Daily Weather History Graph

Search for Another Location

Airport:

Trip Planner

Search our weather history database for the weather conditions in past years. The results will help you decide how hot, cold, wet, or windy it might be!

Date:

Astronomy

Mar. 08, 2014 Rise Set
Actual Time 6:50 AM CET 6:20 PM CET
Civil Twilight 6:20 AM CET 6:50 PM CET
Nautical Twilight 5:46 AM CET 7:24 PM CET
Astronomical Twilight 5:11 AM CET 7:59 PM CET
Moon 10:58 AM CET (3/8) 1:24 AM CET (3/8)
Length of Visible Light 12h 29m
Length of Day
11h 29m
Waxing Crescent, 49% of the Moon is Illuminated
Mar 8
Waxing Crescent
Mar 8
First Quarter
Mar 16
Full
Mar 24
Last Quarter
Mar 30
New

Hourly Weather History & Observations

Time (CET) Temp. Windchill Dew Point Humidity Pressure Visibility Wind Dir Wind Speed Gust Speed Precip Events Conditions
12:00 AM 47 °F - 34 °F 50% 30.27 in - North 2.3 mph - -  
12:20 AM 41.0 °F - 35.6 °F 81% 30.24 in - Variable 2.3 mph - N/A   Clear
12:50 AM 41.0 °F - 35.6 °F 81% 30.24 in - Variable 2.3 mph - N/A   Clear
1:00 AM 46 °F - 35 °F 53% 30.27 in 19 mi NNW 3.5 mph - -  
1:20 AM 41.0 °F - 35.6 °F 81% 30.24 in - Variable 2.3 mph - N/A   Clear
1:50 AM 39.2 °F - 35.6 °F 87% 30.27 in 6.2 mi Variable 1.2 mph - N/A   Unknown
2:00 AM 46 °F - 34 °F 51% 30.29 in - NNE 1.2 mph - -  
2:20 AM 39.2 °F - 35.6 °F 87% 30.24 in - Variable 1.2 mph - N/A   Clear
2:50 AM 39.2 °F - 35.6 °F 87% 30.24 in - Variable 2.3 mph - N/A   Clear
3:00 AM 45 °F - 34 °F 54% 30.28 in - NNW 1.2 mph - -  
3:20 AM 37.4 °F - 33.8 °F 87% 30.24 in - Variable 1.2 mph - N/A   Clear
3:50 AM 37.4 °F - 33.8 °F 87% 30.24 in - Variable 2.3 mph - N/A   Clear
4:00 AM 44 °F - 33 °F 56% 30.28 in 19 mi ENE 1.2 mph - -  
4:20 AM 37.4 °F - 33.8 °F 87% 30.24 in - Variable 1.2 mph - N/A   Clear
4:50 AM 33.8 °F 30.8 °F 32.0 °F 93% 30.24 in - North 3.5 mph - N/A   Clear
5:00 AM 42 °F - 34 °F 63% 30.28 in - North 1.2 mph - -  
5:20 AM 35.6 °F - 33.8 °F 93% 30.24 in - Variable 2.3 mph - N/A   Clear
5:50 AM 35.6 °F - 32.0 °F 87% 30.27 in - Variable 1.2 mph - N/A   Clear
6:00 AM 42 °F - 33 °F 60% 30.29 in - North 1.2 mph - -  
6:20 AM 33.8 °F - 32.0 °F 93% 30.24 in - Variable 2.3 mph - N/A   Clear
6:50 AM 35.6 °F - 32.0 °F 87% 30.24 in - Variable 1.2 mph - N/A   Clear
7:00 AM 42 °F - 32 °F 57% 30.29 in 19 mi North 4.6 mph - -  
7:20 AM 33.8 °F 29.6 °F 32.0 °F 93% 30.24 in - North 4.6 mph - N/A   Clear
7:50 AM 35.6 °F 32.8 °F 33.8 °F 93% 30.24 in - Variable 3.5 mph - N/A   Clear
8:00 AM 44 °F - 35 °F 63% 30.29 in - SW 2.3 mph - -  
8:20 AM 39.2 °F - 35.6 °F 87% 30.27 in - Variable 2.3 mph - N/A   Clear
8:50 AM 41.0 °F 39.0 °F 33.8 °F 76% 30.27 in - Variable 3.5 mph - N/A   Clear
9:00 AM 44 °F - 38 °F 74% 30.32 in - South 3.5 mph - -  
9:20 AM 44.6 °F 43.1 °F 35.6 °F 71% 30.30 in - South 3.5 mph - N/A   Clear
9:50 AM 50.0 °F - 33.8 °F 54% 30.30 in - Variable 2.3 mph - N/A   Clear
10:00 AM 49 °F - 36 °F 50% 30.35 in - NNE 2.3 mph - -  
10:20 AM 51.8 °F - 35.6 °F 54% 30.33 in - Variable 3.5 mph - N/A   Clear
10:50 AM 55.4 °F - 35.6 °F 47% 30.36 in - Variable 2.3 mph - N/A   Clear
11:00 AM 55 °F - 38 °F 40% 30.37 in - South 3.5 mph - -  
11:20 AM 55.4 °F - 41.0 °F 58% 30.36 in 5.6 mi South 9.2 mph - N/A   Unknown
11:50 AM 55.4 °F - 41.0 °F 58% 30.39 in 5.0 mi South 12.7 mph - N/A   Unknown
12:00 PM 54 °F - 40 °F 49% 30.39 in - South 12.7 mph - -  
12:20 PM 55.4 °F - 41.0 °F 58% 30.39 in 5.0 mi South 12.7 mph - N/A   Unknown
12:50 PM 57.2 °F - 41.0 °F 55% 30.39 in 5.0 mi South 12.7 mph - N/A   Unknown
1:20 PM 57.2 °F - 41.0 °F 55% 30.36 in 5.0 mi South 10.4 mph - N/A   Unknown
1:50 PM 59.0 °F - 41.0 °F 51% 30.36 in 5.0 mi South 10.4 mph - N/A   Unknown
2:00 PM 55 °F - 42 °F 51% 30.38 in - South 10.4 mph - -  
2:20 PM 59.0 °F - 41.0 °F 51% 30.36 in 5.0 mi South 9.2 mph - N/A   Unknown
2:50 PM 60.8 °F - 41.0 °F 48% 30.36 in 5.0 mi South 9.2 mph - N/A   Unknown
3:00 PM 56 °F - 41 °F 46% 30.37 in - South 6.9 mph - -  
3:20 PM 60.8 °F - 41.0 °F 48% 30.36 in 5.0 mi South 8.1 mph - N/A   Unknown
3:50 PM 59.0 °F - 41.0 °F 51% 30.36 in 5.0 mi South 9.2 mph - N/A   Unknown
4:00 PM 56 °F - 41 °F 47% 30.37 in - South 10.4 mph - -  
4:20 PM 59.0 °F - 41.0 °F 51% 30.36 in 5.0 mi South 9.2 mph - N/A   Unknown
4:50 PM 59.0 °F - 41.0 °F 51% 30.36 in 5.0 mi South 8.1 mph - N/A   Unknown
5:00 PM 55 °F - 42 °F 50% 30.38 in - South 8.1 mph - -  
5:20 PM 57.2 °F - 41.0 °F 55% 30.36 in 5.0 mi SSW 8.1 mph - N/A   Unknown
5:50 PM 55.4 °F - 41.0 °F 58% 30.36 in 5.0 mi SSW 6.9 mph - N/A   Unknown
6:00 PM 55 °F - 40 °F 46% 30.39 in - SSW 5.8 mph - -  
6:20 PM 55.4 °F - 41.0 °F 58% 30.39 in 5.0 mi SSW 4.6 mph - N/A   Unknown
6:50 PM 51.8 °F - 41.0 °F 67% 30.39 in 5.0 mi Variable 1.2 mph - N/A   Unknown
7:00 PM 55 °F - 40 °F 45% 30.41 in 12 mi North 1.2 mph - -  
7:20 PM 50.0 °F - 41.0 °F 71% 30.39 in 5.0 mi Variable 1.2 mph - N/A   Unknown
7:50 PM 50.0 °F - 41.0 °F 71% 30.42 in 5.0 mi Variable 1.2 mph - N/A   Unknown
8:00 PM 53 °F - 39 °F 49% 30.44 in - North 6.9 mph - -  
8:20 PM 48.2 °F - 41.0 °F 76% 30.42 in 4.3 mi Variable 1.2 mph - N/A   Unknown
8:50 PM 46.4 °F - 41.0 °F 81% 30.42 in 4.3 mi Calm Calm - N/A   Unknown
9:00 PM 50 °F - 40 °F 60% 30.46 in - SE 1.2 mph - -  
9:20 PM 44.6 °F 43.1 °F 41.0 °F 87% 30.45 in 4.3 mi South 3.5 mph - N/A   Unknown
9:50 PM 42.8 °F 40.1 °F 39.2 °F 87% 30.45 in 4.3 mi North 4.6 mph - N/A   Unknown
10:00 PM 48 °F - 41 °F 69% 30.48 in - NNW 1.2 mph - -  
10:20 PM 42.8 °F - 39.2 °F 87% 30.45 in - Variable 1.2 mph - N/A   Mist
10:50 PM 42.8 °F - 39.2 °F 87% 30.48 in 3.7 mi Variable 1.2 mph - N/A   Unknown
11:00 PM 46 °F - 42 °F 81% 30.50 in - SSE 1.2 mph - -  
11:20 PM 42.8 °F - 39.2 °F 87% 30.48 in 3.1 mi Variable 1.2 mph - N/A   Unknown
11:50 PM 42.8 °F - 39.2 °F 87% 30.48 in 2.5 mi Variable 1.2 mph - N/A   Mist